T08 Probe2 CK200723:2342430 011.46081 +14.40392 15.5 GV Z80 Probe2 CK200723:2344230 011.46280 +14.40863 15.5 GV Z80 Probe2 CK200723:2346031 011.46494 +14.41339 15.6 GV Z80 TianweA KC2020 07 24.06585200 47 39.000+15 01 43.61 15.6 G J04 TianweA KC2020 07 24.06818000 47 38.692+15 02 12.93 15.4 G J04 TianweA KC2020 07 24.07051300 47 38.336+15 02 41.92 15.5 G J04 Tianwen-1 C2020 07 24.09738 00 46 31.26 +14 59 59.3 15.7 GV I89 Tianwen-1 C2020 07 24.10042 00 46 29.86 +15 00 30.6 15.9 GV I89 Tianwen-1 C2020 07 24.10354 00 46 28.40 +15 01 02.1 15.7 GV I89 Tianwen-1 C2020 07 24.10762 00 46 26.39 +15 01 42.7 15.9 GV I89 TianweA KC2020 07 24.10797700 47 26.719+15 09 57.63 15.5 G J04 TianweA KC2020 07 24.20525300 46 22.833+15 23 49.05 15.7 G J04 TianweA KC2020 07 24.20757100 46 21.033+15 24 03.50 15.7 G J04 TianweA KC2020 07 25.04562100 52 21.072+15 56 01.86 16.8 G Z84 TianweA KC2020 07 25.04939800 52 20.133+15 56 17.99 16.8 G Z84 TianweA KC2020 07 25.05317400 52 19.146+15 56 33.92 16.8 G Z84 TianweA KC2020 07 25.05695400 52 18.106+15 56 49.60 16.8 G Z84 TianweA KC2020 07 25.06407 00 51 50.73 +15 53 50.9 17.0 G 204 TianweA KC2020 07 25.06650 00 51 49.94 +15 53 59.2 17.0 G 204 TianweA KC2020 07 25.06893 00 51 49.14 +15 54 07.7 17.0 G 204 TianweA KC2020 07 25.07136 00 51 48.34 +15 54 15.9 17.0 G 204 TianweA KC2020 07 25.07380 00 51 47.51 +15 54 24.0 17.0 G 204 TianweA KC2020 07 25.07776 00 51 46.14 +15 54 37.0 17.1 G 204 TianweA KC2020 07 25.08020 00 51 45.29 +15 54 45.0 17.0 G 204 TianweA KC2020 07 25.08263 00 51 44.42 +15 54 52.7 17.1 G 204 TianweA KC2020 07 25.08506 00 51 43.55 +15 55 00.4 17.1 G 204 TianweA KC2020 07 25.08749 00 51 42.66 +15 55 07.9 17.1 G 204 TianweA KC2020 07 25.12635200 51 51.799+16 00 56.29 16.9 G Z84 TianweA KC2020 07 25.12909100 51 50.547+16 01 04.30 17.0 G Z84 TianweA KC2020 07 25.13184200 51 49.274+16 01 12.13 17.0 G Z84 TianweA KC2020 07 25.13459400 51 47.990+16 01 19.89 17.0 G Z84 TianweA KC2020 07 25.18418200 51 23.639+16 03 14.37 16.8 G Z84 Tianwen1 C2020 07 25.44727 00 52 28.46 +16 07 18.0 16.9 718 Tianwen1 C2020 07 25.44766 00 52 28.30 +16 07 18.1 16.8 718 Tianwen1 C2020 07 25.44883 00 52 27.80 +16 07 21.0 16.8 718 Tianwen1 C2020 07 25.44922 00 52 27.64 +16 07 21.9 16.9 718 Tianwen1 C2020 07 25.44960 00 52 27.50 +16 07 22.5 16.7 718 Tianwen1 C2020 07 25.44999 00 52 27.33 +16 07 23.6 16.8 718 Tianwen1 C2020 07 25.45117 00 52 26.85 +16 07 25.6 16.8 718 Tianwen1 C2020 07 25.45155 00 52 26.68 +16 07 26.5 16.8 718 Tianwen1 C2020 07 25.45194 00 52 26.54 +16 07 26.9 16.9 718 Tianwen1 C2020 07 25.45350 00 52 25.87 +16 07 30.3 16.7 718 Tianwen1 C2020 07 25.45389 00 52 25.70 +16 07 31.2 16.8 718 Tianwen1 C2020 07 25.45427 00 52 25.56 +16 07 31.8 16.9 718 Tianwen1 C2020 07 25.45466 00 52 25.39 +16 07 32.7 16.7 718 Tianwen1 C2020 07 25.45584 00 52 24.95 +16 07 34.5 16.9 718 Tianwen1 C2020 07 25.45623 00 52 24.76 +16 07 35.6 16.7 718 Tianwen1 C2020 07 25.45662 00 52 24.59 +16 07 36.1 16.8 718 Tianwen1 C2020 07 25.45701 00 52 24.42 +16 07 37.2 16.8 718 Tianwen1 C2020 07 25.45817 00 52 23.93 +16 07 39.3 16.7 718 Tianwen1 C2020 07 25.45856 00 52 23.77 +16 07 40.5 16.7 718 Tianw1A CK200725:211426 013.33091 +16.23091 17.4 GV N88 Tianw1A CK200725:212032 013.32476 +16.23291 17.5 GV N88 Tianw1A CK200725:212641 013.31872 +16.23479 17.5 GV N88 Tianw1A CK200725:213246 013.31263 +16.23659 17.4 GV N88 Tianw1A CK200725:213854 013.30646 +16.23840 17.3 GV N88 TianweA CK200725:23532377 013.49666 +16.16884 17.6 GV J95 TianweA CK200725:23574767 013.49616 +16.17087 17.6 GV J95 TianweA CK200726:00021473 013.49562 +16.17300 17.6 GV J95 TianweA CK200726:00064355 013.49481 +16.17503 17.4 GV J95 TianweA KC2020 07 26.00673900 54 03.81 +16 13 22.1 17.3 G C95 TianweA KC2020 07 26.01718000 54 02.21 +16 13 47.6 17.4 G C95 TianweA KC2020 07 26.02758200 54 00.41 +16 14 12.2 17.4 G C95 TianweA KC2020 07 26.12582700 53 46.239+16 19 20.46 17.5 G Z84 TianweA KC2020 07 26.12750400 53 45.654+16 19 23.11 17.5 G Z84 TianweA KC2020 07 26.12918600 53 45.063+16 19 25.75 17.4 G Z84 Tianw1A CK200726:210348 013.62159 +16.41313 18.8 GV N88 Tianw1A CK200726:210943 013.61718 +16.41439 18.7 GV N88 Tianw1A CK200726:211539 013.61254 +16.41558 18.8 GV N88 Tianw1A CK200726:212136 013.60769 +16.41681 19.0 GV N88 Tianw1A CK200726:212729 013.60301 +16.41789 18.6 GV N88 TianweA KC2020 07 27.12582600 54 43.109+16 28 19.23 18.2 G Z84 TianweA KC2020 07 27.12750700 54 42.636+16 28 21.09 18.2 G Z84 TianweA KC2020 07 27.12919200 54 42.153+16 28 22.75 18.4 G Z84 TianweA C2020 07 28.01278900 55 29.30 +16 30 24.7 18.0 G C95 TianweA C2020 07 28.01410900 55 29.14 +16 30 26.0 18.0 G C95 TianweA C2020 07 28.01539400 55 28.99 +16 30 27.0 17.9 G C95 TianweA C2020 07 28.01666700 55 28.78 +16 30 29.0 17.9 G C95 TianweA C2020 07 28.01790500 55 28.69 +16 30 30.2 17.9 G C95 TianweA C2020 07 28.01913200 55 28.52 +16 30 31.9 17.9 G C95 TianweA CK200728:01364248 013.83672 +16.49459 18.9 GV J95 TianweA CK200728:01423458 013.83437 +16.49573 18.6 GV J95 TianweA CK200728:01482870 013.83196 +16.49676 18.7 GV J95 TianweA KC2020 07 28.12582000 55 16.262+16 33 26.10 18.7 G Z84 TianweA KC2020 07 28.12749700 55 15.867+16 33 27.31 18.6 G Z84 TianweA KC2020 07 28.12917700 55 15.461+16 33 28.62 18.6 G Z84 Tianw1A CK200728:203952 013.89255 +16.57623 19.3 GV N88 Tianw1A CK200728:204045 013.89192 +16.57629 19.1 GV N88 Tianw1A CK200728:204145 013.89171 +16.57633 19.4 GV N88 Tianw1A CK200728:204244 013.89090 +16.57657 19.3 GV N88 Tianw1A CK200728:204350 013.89041 +16.57668 19.3 GV N88 TianweA KC2020 07 29.12582000 55 37.140+16 36 34.59 19.3 G Z84 TianweA KC2020 07 29.12749900 55 36.790+16 36 35.39 19.0 G Z84 TianweA KC2020 07 29.12918000 55 36.447+16 36 36.36 19.3 G Z84 C2YFH42 C2020 07 29.43284 00 55 41.37 +16 38 11.4 19.2 GV G96 C2YFH42 C2020 07 29.43799 00 55 40.27 +16 38 13.8 19.3 GV G96 C2YFH42 C2020 07 29.44316 00 55 39.14 +16 38 16.3 19.3 GV G96 C2YFH42 C2020 07 29.44831 00 55 38.00 +16 38 18.3 19.3 GV G96 TianweA KC2020 07 29.99721100 56 02.77 +16 36 20.3 19.5 G C95 TianweA KC2020 07 30.00678800 56 01.93 +16 36 28.6 19.3 G C95 TianweA KC2020 07 30.01633100 56 00.96 +16 36 35.8 19.2 G C95 TianweA KC2020 07 30.03139500 55 59.36 +16 36 46.5 19.3 G C95 TianweA KC2020 07 30.04594300 55 57.61 +16 36 56.3 24.7 G C95 TianweA KC2020 07 30.06270300 55 55.33 +16 37 07.1 18.7 G C95 Tianw1A CK200730:205039 013.99040 +16.64320 19.2 GV N88 Tianw1A CK200730:205422 013.98870 +16.64356 19.3 GV N88 TianweA KC2020 08 03.12735500 56 07.121+16 42 05.21 x19.4 G Z84 TianweA KC2020 08 03.13210900 56 06.515+16 42 06.42 x19.3 G Z84 TianweA KC2020 08 03.13686600 56 05.898+16 42 07.46 x19.0 G Z84 Station data: (204) Schiaparelli Observatory (N45.867933 E8.770800) Italy. Observer L. Buzzi. 0.60-m f/4.64 Newtonian + CCD. (718) Tooele (N40.641408 W112.295800) US/Utah. Observer P. Wiggins. 0.35-m f/5.5 Schmidt-Cassegrain + CCD. (C95) SATINO Remote Observatory, Haute Provence (N43.932042 E5.712390) France. Observer J. Jahn. 0.60-m f/3.2 Newtonian reflector + CCD. (G96) Mt. Lemmon Survey (N32.442754 W110.788720) US/Arizona. Observer T. A. Pruyne. Measurers E. J. Christensen, G. A. Farneth, D. C. Fuls, A. R. Gibbs, A. D. Grauer, H. Gröller, R. A. Kowalski, S. M. Larson, G. J. Leonard, T. A. Pruyne, D. Rankin, R. L. Seaman, F. C. Shelly, K. W. Wierzchoś. 1.5-m reflector + 10K CCD. (I89) iTelescope Observatory, Nerpio (N38.165287 W2.326100) Spain. Observer M. Suzuki. 0.15-m f/7.3 refractor + CCD. (J04) ESA Optical Ground Station, Tenerife (N28.300924 W16.511830) Canary Islands (Spain). Observer D. Abreu. Measurers M. Micheli, D. Koschny, E. Schwab, M. Busch, A. Knöfel. 1.0-m f/4.4 reflector + CCD. (J95) Great Shefford (N51.474969 W1.447003) UK. Observer P. Birtwhistle. (N88) Xingming Observatory #3, Nanshan (N43.471787 E87.173220) China. Observer X. Gao. Measurers M. Zhang, Q.-Z. Ye. (T08) ATLAS-MLO, Mauna Loa (N19.536152 W155.576050) US/Hawaii. Observers L. Denneau, A. Heinze, H. Weiland, J. Tonry, H. Flewelling, A. Fitzsimmons, D. Young, B. Stalder. Measurers L. Denneau, A. Heinze, J. Tonry. 0.5-m f/2.0 Schmidt + CCD. (Z80) Northolt Branch Observatory (N51.554661 W0.371920) UK. Observer G. Wells. Measurer D. Bamberger. (Z84) Calar Alto-Schmidt (N37.223981 W2.548143) Spain. Observer E. Schwab. Measurers E. Schwab, D. Koschny, M. Micheli. 0.8-m f/3 Schmidt + CCD. Orbital elements: 2020-049A = NORAD 45935 = Tianwen-1 spacecraft (geocentric escape) Perigee 2020 Jul 23.21849682 +/- 1.48e-5 TT = 5:14:38.125 (JD 2459053.71849682) Epoch 2020 Jul 24.0 TT = JDT 2459054.5 Find_Orb q 6571.98920246 +/- 0.827 (J2000 equator) H 26.4 G 0.15 Peri. 249.91904731 +/- 0.0031 Node 341.68008391 +/- 0.0045 e 1.1972718520 +/- 4.52e-5 Incl. 29.42030776 +/- 0.00012 110 of 113 observations 2020 July 23-30; mean residual 0".472 Orbital elements: TianweA (heliocentric, Mars cruise) Perihelion 2020 Jul 18.77620527 +/- 3.81e-5 TT = 18:37:44.135 (JD 2459049.27620527) Epoch 2020 Oct 1.0 TT = JDT 2459123.5 Earth MOID: 0.0002 Ma: 0.0211 M 48.82201141741 +/- 0.0017 (J2000 ecliptic) Find_Orb n 0.65776765513 +/- 2.39e-5 Peri. 355.94446566 +/- 0.00017 a 1.30944634186 +/- 3.17e-5 Node 299.92731019 +/- 0.00009 e 0.2243237342 +/- 1.89e-5 Incl. 1.04861980 +/- 0.00006 P 1.50/547.30d H 26.4 G 0.15 U 5.6 q 1.01570644866 +/- 8.46e-8 Q 1.60318623507 +/- 6.36e-5 110 of 113 observations 2020 July 23-30; mean residual 0".314 Orbital elements: TianweA (Mars arrival) Perimars 2021 Feb 10.59691738 +/- 0.0473 TT = 14:19:33.662 (JD 2459256.09691738) Epoch 2021 Feb 11.0 TT = JDT 2459256.5 Find_Orb q 0.02110411511 +/- 3.77e-5 (J2000 ecliptic) H 26.4 G 0.15 Peri. 240.00398417 +/- 0.007 Node 37.91793513 +/- 0.030 e 396.0791249067 +/- 0.365 Incl. 54.15283844 +/- 0.016 110 of 113 observations 2020 July 23-30; mean residual 0".314
